GFSFLT2_con_lsi_366.txt.gz
Lid_Strength_Index
1 0 0 0 -0 -1 -0 -1 -0 2 2 2 2 2 2 2 2 2 2 3 3 2 1 1 1 1 1
3 2 1 0 0 0 1 0 -0 1 2 3 3 3 3 3 3 3 3 3 3 3 3 2 2 2 1
4 2 2 1 2 1 2 2 3 5 4 3 3 4 4 4 3 3 4 4 4 3 3 3 3 2 1
5 5 3 3 5 5 5 5 5 5 4 4 4 4 4 3 4 4 5 4 4 4 4 4 4 3 2
7 6 6 7 7 8 9 8 7 5 6 6 6 6 5 4 5 5 5 5 4 5 4 4 4 4 4
8 9 9 9 9 10 10 10 11 6 8 9 7 6 5 5 5 6 6 5 5 5 5 5 4 4 4
9 9 10 9 10 10 10 10 10 9 9 10 8 7 6 7 7 6 6 6 6 6 5 5 5 5 4
10 10 9 9 9 9 10 10 9 9 9 12 8 9 8 7 6 7 7 7 7 6 6 6 5 5 5
12 11 10 10 10 10 11 11 11 11 9 11 10 11 10 8 7 8 7 7 7 6 6 6 7 7 7
12 11 11 11 11 11 11 13 13 13 9 12 11 12 13 9 9 8 7 7 7 8 7 7 7 8 8
13 13 13 12 12 12 12 12 13 13 11 11 12 12 13 12 10 8 8 8 8 8 8 8 8 8 9
14 14 14 14 13 13 13 13 11 12 10 11 12 12 12 13 12 10 10 9 9 10 9 8 8 8 8
15 15 15 14 14 14 13 13 12 12 11 10 11 11 11 13 14 12 12 12 11 10 11 10 10 10 11
16 16 15 15 15 14 15 14 14 13 11 10 11 12 13 13 13 13 11 13 12 11 11 11 10 9 9
16 16 16 16 16 15 15 15 15 14 14 13 11 12 12 13 14 12 11 11 10 11 11 12 11 9 8
16 17 17 17 17 16 15 15 16 16 15 14 14 14 13 12 10 11 11 11 10 10 10 11 11 9 8
17 17 17 17 16 16 16 16 16 16 15 14 15 15 17 18 13 10 12 12 11 10 9 10 10 9 8

GFSFLT2_con_lsi_369.txt.gz
Lid_Strength_Index
1 1 1 1 0 0 0 0 0 2 2 2 3 3 3 3 3 4 4 4 3 3 2 2 2 2 1
2 2 2 1 1 1 1 1 1 3 3 4 3 4 5 4 4 4 4 5 4 4 3 3 3 3 2
3 2 2 2 3 3 3 4 5 5 5 4 4 5 5 5 4 4 5 5 5 5 4 4 4 4 3
5 5 5 4 6 7 7 7 7 7 6 6 6 6 6 5 4 6 6 6 5 5 5 5 5 5 4
7 7 7 7 8 9 9 9 9 8 9 9 9 8 7 5 6 7 6 6 6 6 6 6 5 5 5
8 9 9 9 9 10 11 11 12 8 11 11 9 9 8 8 7 6 6 7 7 7 6 6 7 7 6
10 10 11 10 10 11 11 12 12 11 11 13 10 11 9 9 8 6 7 7 7 7 7 7 7 6 6
11 11 10 10 10 10 11 11 11 11 10 14 12 12 11 10 8 7 8 7 8 7 7 7 7 6 7
12 12 11 11 11 11 13 14 15 14 11 12 13 13 13 12 9 8 8 8 7 7 7 7 7 8 8
12 12 12 13 12 12 12 15 15 15 12 15 14 14 16 13 12 11 10 8 7 7 8 8 8 9 10
14 14 14 14 14 13 13 14 16 15 12 13 15 14 15 15 14 12 11 10 10 10 9 8 8 9 11
14 15 15 15 15 15 14 14 14 14 13 13 14 15 16 16 16 14 13 12 12 12 11 10 9 9 9
16 16 16 15 15 15 15 14 14 14 12 14 15 14 15 16 16 15 15 14 12 11 12 12 11 11 12
16 16 15 16 16 16 16 16 16 16 14 14 14 14 16 15 16 16 15 14 12 13 12 12 11 11 11
16 17 16 16 17 16 16 17 19 17 17 15 15 15 15 15 16 15 14 14 13 13 14 13 11 10 10
17 17 17 18 18 17 17 19 18 18 18 17 16 17 16 16 12 16 15 14 14 14 13 12 12 10 9
18 19 19 19 18 19 18 18 19 18 17 17 17 18 19 20 16 11 15 15 14 13 12 12 12 11 10

GFSFLT2_con_lsi_372.txt.gz
Lid_Strength_Index
3 2 3 3 2 1 1 1 2 3 3 3 4 4 5 5 6 5 5 5 5 5 4 4 3 3 3
3 3 3 2 2 2 2 3 3 4 4 4 5 5 6 6 6 5 6 6 6 5 5 5 4 4 4
3 3 3 3 4 4 5 7 6 6 6 7 7 7 7 6 6 7 7 6 6 6 6 6 5 5 4
2 4 4 5 6 8 8 8 9 9 8 8 8 7 7 6 7 7 6 6 6 6 6 6 6 6 6
6 7 7 8 9 9 10 11 10 10 11 11 10 10 9 8 8 8 7 7 7 7 7 7 7 7 6
8 8 9 9 10 11 12 13 14 11 12 12 11 11 11 10 9 8 7 7 8 8 7 7 7 7 7
11 12 12 12 11 12 12 13 13 12 12 15 13 14 11 11 9 8 8 8 8 8 8 8 8 7 7
11 12 12 12 12 11 12 13 14 13 13 18 16 15 12 12 9 8 8 8 8 8 8 8 8 8 8
12 12 12 12 12 13 15 17 19 17 13 15 17 16 16 14 12 9 9 9 9 9 8 9 8 9 9
12 13 13 13 12 14 15 17 17 19 14 16 16 16 18 16 14 13 12 10 10 9 9 9 9 11 11
15 15 15 15 15 14 14 15 17 17 14 17 17 16 15 16 17 15 14 13 13 12 10 9 9 10 12
17 17 17 17 17 17 16 16 16 15 14 14 15 18 18 17 18 15 15 14 14 14 13 10 9 9 9
17 17 17 17 16 16 16 15 15 15 14 15 17 17 20 17 17 17 17 16 14 14 13 13 13 13 13
17 17 16 17 17 17 18 17 19 17 15 15 15 17 21 17 17 17 16 16 14 15 14 14 13 12 12
18 18 18 18 18 17 18 20 22 21 18 17 18 17 17 18 19 17 16 16 15 15 16 15 13 12 11
19 19 20 21 20 20 20 22 23 22 22 22 20 18 19 19 14 18 17 17 16 15 14 14 15 12 11
22 23 23 23 22 22 22 23 23 22 20 21 24 24 20 21 17 12 16 16 15 15 14 14 14 13 11

GFSFLT2_con_lsi_375.txt.gz
Lid_Strength_Index
5 4 4 3 2 1 1 2 3 5 4 4 4 6 7 7 6 5 6 6 6 5 5 5 5 4 4
5 4 3 3 3 2 3 5 6 6 5 6 7 7 7 6 7 7 7 6 6 6 6 6 6 5 5
4 3 4 4 4 4 6 7 7 8 7 8 8 8 7 6 7 8 7 7 7 7 7 7 7 7 6
3 3 3 5 6 8 8 8 10 9 9 9 9 9 8 8 9 9 8 8 8 8 8 7 8 7 7
4 6 7 9 9 10 10 10 11 11 12 11 11 11 10 10 10 10 8 8 8 8 8 8 8 8 7
8 9 10 11 11 11 11 12 14 10 13 13 12 13 12 12 11 9 9 9 9 8 8 8 8 8 8
10 11 11 11 11 12 12 13 13 12 13 14 13 13 13 13 10 8 9 9 9 9 9 9 9 8 8
11 11 11 12 12 12 12 13 14 14 13 17 15 14 13 12 10 9 10 10 10 10 9 9 9 9 9
11 12 12 12 13 12 14 16 18 17 15 16 17 17 16 15 12 10 11 10 11 10 10 9 9 9 11
15 14 14 14 14 15 16 18 18 20 16 19 17 17 20 17 15 14 14 12 11 11 10 10 10 12 13
16 16 16 16 16 16 16 17 19 19 15 17 19 18 19 18 17 16 15 15 14 14 11 11 10 11 13
18 18 18 18 18 18 17 17 16 16 15 15 21 20 18 18 19 16 17 15 15 15 14 12 11 11 10
18 18 18 18 17 17 17 16 16 16 15 16 19 18 20 22 19 19 18 18 16 15 15 15 15 14 14
18 18 18 18 19 18 19 18 21 19 16 16 16 18 24 20 20 20 18 20 16 16 16 16 15 13 13
19 19 19 19 19 19 19 23 25 23 23 20 20 18 19 21 25 19 18 17 16 16 16 16 14 13 13
20 20 21 21 21 21 22 24 25 24 25 24 25 22 22 20 15 20 20 18 16 15 15 16 15 13 12
22 22 23 24 24 25 23 24 25 24 25 25 29 28 24 22 18 12 16 16 16 16 14 14 14 14 12

GFSFLT2_con_lsi_378.txt.gz
Lid_Strength_Index
7 6 6 5 4 4 3 3 5 5 4 4 6 7 7 6 6 7 7 7 7 7 6 7 6 6 6
6 6 6 5 4 4 5 6 7 7 6 7 7 7 7 6 8 9 8 8 8 7 7 7 7 7 7
6 5 5 5 5 5 7 8 8 7 8 9 8 8 7 8 9 9 8 8 8 8 8 8 8 8 7
6 5 5 6 7 7 8 9 10 9 10 9 9 9 9 10 10 10 9 8 9 9 9 9 9 8 8
5 4 7 8 9 10 10 10 12 11 11 10 10 10 11 11 11 9 8 8 9 9 9 9 9 8 8
5 8 10 11 11 11 11 12 12 10 12 12 11 13 13 13 10 9 10 10 10 10 10 9 9 9 9
9 11 12 11 11 12 12 12 13 13 13 14 14 15 14 14 10 11 11 11 11 10 10 10 9 9 9
12 12 12 12 11 12 12 13 14 15 15 19 17 17 15 14 11 11 11 11 11 11 10 10 10 10 10
11 12 13 13 12 12 15 16 17 17 16 17 17 17 17 16 14 12 12 12 12 11 10 11 11 11 12
16 16 15 15 15 16 16 18 18 18 16 19 18 18 21 18 16 15 15 13 13 12 11 11 11 13 14
18 17 17 18 18 17 17 18 20 19 16 19 20 19 19 19 17 17 16 16 16 15 13 12 12 12 15
19 19 19 19 19 18 18 18 17 17 16 17 23 21 20 23 20 18 18 16 16 16 16 14 13 12 11
19 19 19 19 18 18 18 17 17 17 16 17 19 19 21 21 22 20 19 19 17 17 16 16 16 15 15
19 19 19 19 19 19 20 20 22 21 18 17 17 19 26 22 21 23 20 23 18 17 17 16 15 14 14
19 20 20 20 20 20 21 23 25 25 24 21 20 20 20 23 24 21 20 19 17 17 17 16 15 14 13
20 21 22 22 23 23 22 25 27 25 25 24 27 25 24 21 17 21 21 21 17 16 15 16 16 14 13
23 23 24 25 25 25 25 24 24 23 25 27 31 30 30 28 19 13 17 17 16 16 15 15 16 14 13

GFSFLT2_con_lsi_381.txt.gz
Lid_Strength_Index
7 7 7 6 5 5 5 6 6 5 4 6 7 7 7 6 7 7 7 7 7 7 7 7 7 7 6
7 7 7 6 6 6 6 7 7 6 7 7 8 7 5 7 8 9 8 8 8 8 8 8 8 7 7
6 6 6 6 6 7 8 9 8 8 8 9 8 7 8 8 9 9 8 8 8 9 9 9 8 8 8
6 6 6 6 6 7 9 9 10 9 10 9 9 9 9 10 11 9 8 9 9 9 10 10 9 9 8
6 6 7 8 8 9 11 11 11 10 10 10 11 11 12 12 11 9 10 10 10 10 10 10 9 9 9
5 5 6 9 10 11 11 12 13 12 12 12 11 12 13 15 10 10 11 11 11 11 10 10 10 10 10
4 8 10 11 11 12 12 12 13 15 13 14 14 15 15 14 10 11 11 11 11 11 11 10 11 11 11
11 12 11 11 11 11 12 15 15 16 16 17 17 18 16 16 12 12 12 12 12 12 11 11 12 11 11
12 12 11 11 11 13 15 16 17 17 17 18 18 18 17 17 16 14 13 13 13 13 12 12 12 12 14
16 16 16 15 14 15 15 17 17 18 17 19 18 18 20 18 17 16 16 14 14 13 13 13 12 15 15
17 18 18 18 18 17 17 17 19 19 17 19 19 19 19 19 18 18 17 17 16 16 14 14 12 13 16
18 19 19 19 19 18 18 18 17 18 17 17 21 21 21 23 21 18 19 17 17 17 17 15 14 13 12
19 19 19 19 19 18 18 18 18 18 17 17 19 19 21 23 22 21 20 20 19 18 18 17 17 16 16
20 20 19 19 20 19 20 20 22 21 19 18 19 20 26 23 23 25 21 24 19 18 18 17 16 15 14
20 20 20 20 21 21 21 23 25 25 24 23 22 22 22 24 24 23 22 20 18 18 18 18 16 14 14
20 21 22 22 22 22 23 24 25 26 27 27 28 28 26 23 19 23 23 23 19 17 16 17 16 14 13
22 22 22 21 25 24 24 24 25 25 28 30 34 33 32 30 21 15 21 19 18 17 16 16 16 15 13

GFSFLT2_con_lsi_384.txt.gz
Lid_Strength_Index
8 8 8 7 6 6 5 7 6 5 4 6 6 7 7 6 7 7 7 8 7 7 7 7 7 7 7
8 8 8 7 7 7 5 7 7 6 7 7 7 7 7 7 8 9 9 8 8 8 8 8 8 8 8
8 7 7 7 7 8 9 9 7 7 8 8 8 8 8 9 10 9 9 9 9 9 10 10 9 9 8
8 7 7 7 6 7 10 9 10 9 9 10 9 9 10 11 10 9 10 10 10 10 10 10 10 10 9
7 8 7 8 7 8 9 11 11 11 11 11 11 11 13 13 11 11 11 11 11 11 11 11 10 11 10
6 7 7 7 9 9 11 12 13 13 12 13 12 13 14 14 11 12 12 12 12 12 12 11 11 11 11
6 6 7 8 10 11 11 12 14 15 14 15 14 15 15 14 11 12 12 13 13 12 12 12 12 12 11
9 11 10 10 10 11 12 15 16 16 15 16 16 16 16 16 13 14 14 14 14 13 13 13 13 12 13
10 10 10 11 11 13 15 15 16 17 17 17 18 18 17 17 16 15 15 15 14 14 14 13 13 13 15
16 16 16 14 14 14 14 16 17 18 17 18 18 19 19 17 17 17 17 15 15 15 15 14 13 15 16
18 17 18 18 17 17 16 16 18 19 17 18 19 20 20 19 18 18 18 18 18 18 16 15 13 13 16
18 19 19 19 18 18 18 18 18 18 18 18 21 21 23 24 22 19 19 19 19 18 18 16 14 13 13
19 19 19 19 18 19 19 19 19 19 18 18 20 20 22 25 23 22 21 21 20 19 18 18 17 16 17
20 19 19 19 20 19 20 20 21 22 20 19 20 21 25 22 24 26 23 25 20 19 18 18 17 15 15
20 21 21 21 21 20 21 23 24 25 25 23 22 22 22 24 25 24 23 23 19 19 19 19 17 15 14
21 21 22 22 22 22 22 24 25 25 26 27 28 27 26 24 20 24 24 24 20 19 18 19 18 15 13
22 23 22 21 23 23 23 24 25 26 27 31 34 34 33 30 22 17 23 22 21 19 17 17 17 15 14